This is the latest recevied weather packets stored in our database for station/object KD8ZLZ-13. If no packets are shown the sender has not sent any weather packets the latest 1 day(s).
| Time | Temp. | Humidity | Pressure | Rain* | Wind** | Luminosity | Snow |
|---|---|---|---|---|---|---|---|
| 1778048441 | 8.33° C | 84% | 1010.2 hPa | 0 mm | 0.45 m/s, 198° | 0 W/m² | - |
| 1778047841 | 8.33° C | 85% | 1009.8 hPa | 0 mm | 0.45 m/s, 203° | 0 W/m² | - |
| 1778047241 | 8.33° C | 85% | 1009.8 hPa | 0 mm | 0.89 m/s, 206° | 0 W/m² | - |
| 1778046641 | 8.33° C | 83% | 1010.2 hPa | 0 mm | 0.89 m/s, 209° | 0 W/m² | - |
| 1778046041 | 8.33° C | 83% | 1009.8 hPa | 0 mm | 0.89 m/s, 205° | 0 W/m² | - |
| 1778045441 | 8.33° C | 82% | 1010.2 hPa | 0 mm | 0.45 m/s, 201° | 0 W/m² | - |
| 1778044841 | 8.33° C | 81% | 1010.2 hPa | 0 mm | 0.45 m/s, 210° | 0 W/m² | - |
| 1778044241 | 8.33° C | 80% | 1010.2 hPa | 0 mm | 0.89 m/s, 203° | 0 W/m² | - |
| 1778043641 | 8.33° C | 79% | 1010.2 hPa | 0 mm | 0.89 m/s, 206° | 0 W/m² | - |
| 1778043041 | 8.33° C | 79% | 1010.2 hPa | 0 mm | 0.45 m/s, 200° | 0 W/m² | - |
| 1778042441 | 8.33° C | 77% | 1009.8 hPa | 0 mm | 0.45 m/s, 197° | 0 W/m² | - |
| 1778041841 | 8.89° C | 75% | 1010.2 hPa | 0 mm | 0.89 m/s, 201° | 0 W/m² | - |
| 1778041241 | 8.89° C | 75% | 1009.8 hPa | 0 mm | 0.89 m/s, 205° | 0 W/m² | - |
| 1778040641 | 8.33° C | 77% | 1009.5 hPa | 0 mm | 0.89 m/s, 198° | 0 W/m² | - |
| 1778040041 | 8.33° C | 80% | 1009.5 hPa | 0 mm | 0.45 m/s, 191° | 0 W/m² | - |
| 1778039441 | 8.33° C | 79% | 1009.8 hPa | 0 mm | 0 m/s | 0 W/m² | - |
| 1778038841 | 8.33° C | 77% | 1009.8 hPa | 0 mm | 0 m/s | 0 W/m² | - |
| 1778038241 | 8.33° C | 76% | 1010.2 hPa | 0 mm | 0 m/s | 0 W/m² | - |
| 1778037641 | 8.89° C | 74% | 1009.8 hPa | 0 mm | 0 m/s | 0 W/m² | - |
| 1778037041 | 8.89° C | 71% | 1009.8 hPa | 0 mm | 0 m/s | 0 W/m² | - |
| 1778036441 | 8.89° C | 69% | 1010.2 hPa | 0 mm | 0.45 m/s, 195° | 0 W/m² | - |
| 1778035841 | 8.89° C | 69% | 1009.8 hPa | 0 mm | 0.45 m/s, 189° | 0 W/m² | - |
| 1778035241 | 8.89° C | 76% | 1009.8 hPa | 0 mm | 0 m/s | 0 W/m² | - |
| 1778034641 | 8.89° C | 68% | 1009.8 hPa | 0 mm | 0 m/s | 0 W/m² | - |
| 1778034041 | 8.89° C | 67% | 1009.8 hPa | 0 mm | 0.45 m/s, 188° | 0 W/m² | - |
* Rain latest hour (hover to see other rain measurements)
** Current wind speed in m/s (hover to see current wind gust speed)